Hourly Data Report for May 13, 2012

All times are specified in Local Standard Time (LST). Add 1 hour to adjust for Daylight Saving Time where and when it is observed.

GANDER INTL A
NEWFOUNDLAND

48°56'13.000" N
54°34'05.000" W
151.20 m
8401703
71803
YQX

Download Data

Hourly Data (May 2012)
Hourly Data Report for May 13, 2012
Temp Definition
°C
Dew Point Temp Definition
°C
Rel Hum Definition
%
Wind Dir Definition
10's deg

Wind Spd Definition
km/h
Visibility Definition
km
Stn Press Definition
kPa
Hmdx Definition


Wind Chill Definition


Weather Definition


TIME
00:30 9.8 9.0 95 18 8 10.0 100.29     LegendNANA
01:30 8.9 8.5 97 24 8 10.0 100.28     LegendNANA
02:30 8.2 7.3 94 22 8 10.0 100.24     Mostly Cloudy
03:30 7.4 5.9 90 21 7 10.0 100.25     LegendNANA
04:30 7.0 5.0 87 24 15 10.0 100.28     LegendNANA
05:30 7.2 4.9 85 23 11 10.0 100.27     Mostly Cloudy
06:30 7.1 5.3 88 20 9 10.0 100.33     Rain Showers
07:30 7.9 6.1 88 20 7 10.0 100.35     Rain Showers
08:30 9.1 6.2 82 21 10 10.0 100.30     Mostly Cloudy
09:30 10.2 6.9 80 18 7 10.0 100.26     LegendNANA
10:30 11.1 6.9 75 18 15 10.0 100.29     LegendNANA
11:30 11.1 7.3 77 16 10 10.0 100.23     Mostly Cloudy
12:30 12.8 7.3 69 22 12 10.0 100.16     LegendNANA
13:30 13.6 7.4 66 12 7 10.0 100.09     LegendNANA
14:30 15.2 5.5 52 27 10 10.0 100.04     Mostly Cloudy
15:30 14.9 5.2 52 33 9 10.0 100.01     LegendNANA
16:30 15.2 4.9 50 34 9 10.0 99.99     LegendNANA
17:30 13.6 7.4 66 1 16 10.0 100.00     Mostly Cloudy
18:30 11.6 7.2 74 35 21 10.0 100.07     LegendNANA
19:30 8.2 5.5 83 35 19 10.0 100.14     LegendNANA
20:30 5.8 4.5 91 33 17 10.0 100.20     Mostly Cloudy
21:30 5.5 4.5 93 31 13 10.0 100.25     LegendNANA
22:30 5.0 4.3 95 30 14 10.0 100.28     LegendNANA
23:30 4.7 4.3 97 31 15 2.4 100.32     Fog

Notes on Data Quality.

Legend

  • E = Estimated
  • M = Missing
  • NA = Not Available
Date modified: